FW0014 Weather Reports


Display with metric or nautical units.
time (UTC)temp
F
wind
direction
speed
MPH
gust
MPH
rain 1hr
in
rain 24hr
in
rain mn
in
humidity
%
barometer
mb
20260509194828 86 263 3.0 7.0 0.00 0.01 0.01 58 1011.4
20260509194553 85 177 0.0 1.0 0.00 0.01 0.01 59 1009.5
20260509194324 85 177 0.0 0.0 0.00 0.01 0.01 58 1011.5
20260509194041 84 177 0.0 0.0 0.00 0.01 0.01 59 1009.6
20260509193821 85 177 0.0 0.0 0.00 0.01 0.01 60 1011.7
20260509193537 84 177 0.0 0.0 0.00 0.01 0.01 58 1009.7
20260509193317 85 191 0.0 0.0 0.00 0.01 0.01 59 1011.7
20260509193033 85 222 0.0 0.0 0.00 0.01 0.01 60 1009.8
20260509192814 85 211 0.0 0.0 0.00 0.01 0.01 59 1011.8
20260509192511 85 228 0.0 0.0 0.00 0.01 0.01 61 1009.9
20260509192330 85 222 0.0 0.0 0.00 0.01 0.01 61 1011.8
20260509192005 84 259 0.0 0.0 0.00 0.01 0.01 60 1009.9
20260509191825 85 273 0.0 0.0 0.00 0.01 0.01 60 1011.9
20260509191604 84 259 0.0 0.0 0.00 0.01 0.01 61 1010.0
20260509191322 85 194 0.0 0.0 0.00 0.01 0.01 60 1011.9
20260509191051 84 216 0.0 0.0 0.00 0.01 0.01 61 1010.1
20260509190817 84 181 0.0 0.0 0.00 0.01 0.01 60 1012.2
20260509190543 84 161 0.0 0.0 0.00 0.01 0.01 60 1010.3
20260509190328 84 222 0.0 0.0 0.00 0.01 0.01 61 1012.2
20260509190007 84 177 0.0 0.0 0.00 0.01 0.01 62 1010.3
20260509185823 84 271 0.0 0.0 0.00 0.01 0.01 63 1012.3
20260509185501 83 276 0.0 0.0 0.00 0.01 0.01 63 1010.3
20260509185317 83 220 0.0 0.0 0.00 0.01 0.01 63 1012.4
20260509185033 83 208 0.0 0.0 0.00 0.01 0.01 63 1010.5
20260509184814 83 208 0.0 0.0 0.00 0.01 0.01 63 1012.5
20260509184523 83 226 0.0 0.0 0.00 0.01 0.01 64 1010.5
20260509184329 83 191 0.0 0.0 0.00 0.01 0.01 65 1012.4
20260509184007 83 158 0.0 0.0 0.00 0.01 0.01 65 1010.6
20260509183825 83 160 0.0 0.0 0.00 0.01 0.01 63 1012.6
20260509183601 83 169 0.0 0.0 0.00 0.01 0.01 64 1010.7
20260509183321 83 127 0.0 0.0 0.00 0.01 0.01 66 1012.7
20260509183103 83 127 0.0 0.0 0.00 0.01 0.01 65 1010.9
20260509182816 83 76 0.0 0.0 0.00 0.01 0.01 66 1012.8
20260509182545 83 88 0.0 0.0 0.00 0.01 0.01 66 1010.8
20260509182331 83 359 0.0 0.0 0.00 0.01 0.01 67 1012.7
20260509182015 82 110 0.0 0.0 0.00 0.01 0.01 69 1011.0
20260509181829 83 110 0.0 0.0 0.00 0.01 0.01 67 1012.9
20260509181503 82 237 0.0 0.0 0.00 0.01 0.01 67 1011.0
20260509181324 82 236 0.0 0.0 0.00 0.01 0.01 66 1012.8
20260509181055 82 236 0.0 0.0 0.00 0.01 0.01 65 1011.0
20260509180820 82 236 0.0 0.0 0.00 0.01 0.01 66 1012.9
20260509180550 82 236 0.0 0.0 0.00 0.01 0.01 66 1011.1
20260509180337 83 290 0.0 0.0 0.00 0.01 0.01 67 1013.0
20260509180017 82 148 0.0 0.0 0.00 0.01 0.01 67 1011.2
20260509175831 82 152 0.0 0.0 0.00 0.01 0.01 68 1013.1
20260509175602 82 99 0.0 0.0 0.00 0.01 0.01 70 1011.3
20260509175325 82 62 0.0 0.0 0.00 0.01 0.01 70 1013.1
20260509175031 81 62 0.0 0.0 0.00 0.01 0.01 70 1011.3
20260509174822 81 42 0.0 0.0 0.00 0.01 0.01 70 1013.1
20260509174539 81 12 0.0 0.0 0.00 0.01 0.01 71 1011.3
20260509174318 81 8 0.0 0.0 0.00 0.01 0.01 70 1013.2
20260509174024 80 348 0.0 0.0 0.00 0.01 0.01 71 1011.4
20260509173833 81 359 0.0 0.0 0.00 0.01 0.01 71 1013.3
20260509173504 80 334 0.0 0.0 0.00 0.01 0.01 71 1011.5
20260509173329 81 206 0.0 0.0 0.00 0.01 0.01 71 1013.4
20260509173101 80 65 0.0 0.0 0.00 0.01 0.01 72 1011.6
20260509172846 81 37 0.0 0.0 0.00 0.01 0.01 72 1013.4
20260509172527 80 324 0.0 0.0 0.00 0.01 0.01 71 1011.6
20260509172322 80 314 0.0 0.0 0.00 0.01 0.01 72 1013.5
20260509172025 80 8 0.0 0.0 0.00 0.01 0.01 71 1011.7
20260509171818 81 354 0.0 0.0 0.00 0.01 0.01 71 1013.6
20260509171512 80 53 0.0 0.0 0.00 0.01 0.01 73 1011.9
20260509171314 81 10 0.0 0.0 0.00 0.01 0.01 73 1013.7
20260509171003 80 346 0.0 0.0 0.00 0.01 0.01 73 1011.8
20260509170850 80 346 0.0 0.0 0.00 0.01 0.01 73 1013.6
20260509170537 80 45 0.0 0.0 0.00 0.01 0.01 73 1011.8
20260509170326 80 32 0.0 0.0 0.00 0.01 0.01 74 1013.6
20260509170031 80 87 0.0 0.0 0.00 0.01 0.01 74 1011.8
20260509165822 80 87 0.0 0.0 0.00 0.01 0.01 74 1013.7
20260509165522 80 51 0.0 0.0 0.00 0.01 0.01 75 1011.8
20260509165319 80 54 0.0 0.0 0.00 0.01 0.01 76 1013.7
20260509165015 79 42 0.0 0.0 0.00 0.01 0.01 77 1011.8
20260509164834 80 42 0.0 0.0 0.00 0.01 0.01 77 1013.7
20260509164559 79 39 0.0 0.0 0.00 0.01 0.01 77 1011.8
20260509164345 79 4 0.0 0.0 0.00 0.01 0.01 77 1013.6
20260509164030 79 341 0.0 0.0 0.00 0.01 0.01 77 1011.7
20260509163820 79 359 0.0 0.0 0.00 0.01 0.01 77 1013.5
20260509163528 78 342 0.0 0.0 0.00 0.01 0.01 77 1011.7
20260509163317 79 13 0.0 0.0 0.00 0.01 0.01 77 1013.4
20260509163019 78 47 0.0 5.0 0.00 0.01 0.01 77 1011.7
20260509162831 79 359 0.0 6.0 0.00 0.01 0.01 77 1013.4
20260509162602 78 336 0.0 9.0 0.00 0.01 0.01 78 1011.5
20260509162327 78 334 2.0 9.0 0.00 0.01 0.01 77 1013.4
20260509162053 78 334 3.0 9.0 0.00 0.01 0.01 78 1011.7
20260509161843 78 303 4.0 9.0 0.00 0.01 0.01 77 1013.3
20260509161530 78 30 3.0 9.0 0.00 0.01 0.01 79 1011.7
20260509161338 78 354 3.0 9.0 0.00 0.01 0.01 78 1013.4
20260509161049 78 308 4.0 9.0 0.00 0.01 0.01 78 1011.7
20260509160833 78 314 6.0 9.0 0.00 0.01 0.01 78 1013.5
20260509160541 78 21 2.0 6.0 0.00 0.01 0.01 80 1011.7
20260509160349 78 354 1.0 8.0 0.00 0.01 0.01 80 1013.6
20260509160007 77 330 2.0 8.0 0.00 0.01 0.01 79 1011.8
20260509155824 78 320 3.0 8.0 0.00 0.01 0.01 79 1013.5
20260509155600 78 298 4.0 8.0 0.00 0.01 0.01 80 1011.8
20260509155339 78 322 1.0 6.0 0.00 0.01 0.01 81 1013.6
20260509155032 77 321 2.0 4.0 0.00 0.01 0.01 81 1011.9
20260509154814 78 72 1.0 4.0 0.00 0.01 0.01 81 1013.7
20260509154523 77 195 0.0 3.0 0.00 0.01 0.01 81 1011.9
20260509154330 77 195 0.0 3.0 0.00 0.01 0.01 81 1013.7
20260509154010 77 195 0.0 3.0 0.00 0.01 0.01 81 1011.9
20260509153826 77 195 0.0 0.0 0.00 0.01 0.01 82 1013.7
20260509153602 76 195 0.0 0.0 0.00 0.01 0.01 82 1011.9
20260509153321 76 195 0.0 0.0 0.00 0.01 0.01 83 1013.6
20260509153056 76 195 0.0 0.0 0.00 0.01 0.01 83 1011.9
20260509152818 76 195 0.0 0.0 0.00 0.01 0.01 83 1013.6
20260509152545 76 195 0.0 0.0 0.00 0.01 0.01 83 1011.9
20260509152315 76 174 0.0 0.0 0.00 0.01 0.01 83 1013.6
20260509152037 75 215 0.0 0.0 0.00 0.01 0.01 85 1011.8
20260509151830 76 204 0.0 0.0 0.00 0.01 0.01 85 1013.5
20260509151529 75 243 0.0 0.0 0.00 0.01 0.01 85 1011.7
20260509151325 75 258 0.0 0.0 0.00 0.01 0.01 85 1013.5
20260509151022 75 200 0.0 0.0 0.00 0.01 0.01 85 1011.7
20260509150821 75 201 0.0 0.0 0.00 0.01 0.01 85 1013.3
20260509150518 74 223 0.0 0.0 0.00 0.01 0.01 85 1011.5
20260509150317 75 224 0.0 0.0 0.00 0.01 0.01 85 1013.2
20260509150104 74 208 0.0 0.0 0.00 0.01 0.01 86 1011.3
20260509145832 75 199 0.0 0.0 0.00 0.01 0.01 86 1013.1
20260509145553 74 241 0.0 0.0 0.00 0.01 0.01 86 1011.2
20260509145329 74 226 0.0 0.0 0.00 0.01 0.01 86 1012.9
20260509145044 74 201 0.0 0.0 0.00 0.01 0.01 87 1011.2
20260509144825 74 228 0.0 0.0 0.00 0.01 0.01 87 1012.8
20260509144532 74 271 0.0 0.0 0.00 0.01 0.01 87 1011.2
20260509144341 74 264 0.0 0.0 0.00 0.01 0.01 88 1012.9
20260509144056 73 235 0.0 0.0 0.00 0.01 0.01 87 1011.1
20260509143817 74 206 0.0 0.0 0.00 0.01 0.01 88 1012.9
20260509143549 73 214 0.0 0.0 0.00 0.01 0.01 88 1011.1
20260509143332 73 224 0.0 0.0 0.00 0.01 0.01 87 1012.8
20260509143051 73 261 0.0 0.0 0.00 0.01 0.01 88 1011.1
20260509142828 73 226 0.0 0.0 0.00 0.01 0.01 88 1012.9
20260509142535 73 231 0.0 0.0 0.00 0.01 0.01 88 1011.2
20260509142324 73 227 0.0 0.0 0.00 0.01 0.01 88 1012.8
20260509142028 73 275 0.0 0.0 0.00 0.01 0.01 88 1011.1
20260509141821 73 261 0.0 0.0 0.00 0.01 0.01 88 1012.8
20260509141521 73 238 0.0 0.0 0.00 0.01 0.01 88 1011.0
20260509141318 73 258 0.0 0.0 0.00 0.01 0.01 88 1012.8
20260509141014 72 266 0.0 0.0 0.00 0.01 0.01 88 1011.1
20260509140814 73 250 0.0 0.0 0.00 0.01 0.01 89 1012.8
20260509140602 72 246 0.0 0.0 0.00 0.01 0.01 89 1011.0
20260509140332 73 247 0.0 0.0 0.00 0.01 0.01 89 1012.7
20260509135828 72 285 0.0 0.0 0.00 0.01 0.01 88 1012.8
20260509135547 72 269 0.0 0.0 0.00 0.01 0.01 89 1011.1
20260509135340 72 303 0.0 0.0 0.00 0.01 0.01 89 1012.6
20260509135012 72 281 0.0 0.0 0.00 0.01 0.01 89 1010.8
20260509134853 72 268 0.0 0.0 0.00 0.01 0.01 89 1012.5
20260509134541 71 236 0.0 0.0 0.00 0.01 0.01 89 1010.7
20260509134328 72 249 0.0 0.0 0.00 0.01 0.01 89 1012.4
20260509134032 71 265 0.0 0.0 0.00 0.01 0.01 89 1010.7
20260509133845 72 274 0.0 0.0 0.00 0.01 0.01 89 1012.5
20260509133559 71 270 0.0 0.0 0.00 0.01 0.01 90 1010.9
20260509133319 71 297 0.0 0.0 0.00 0.01 0.01 90 1012.5
20260509133051 71 247 0.0 0.0 0.00 0.01 0.01 90 1010.9
20260509132815 71 302 0.0 0.0 0.00 0.01 0.01 90 1012.3
20260509132541 70 311 0.0 0.0 0.00 0.01 0.01 91 1010.6
20260509132331 71 319 0.0 0.0 0.00 0.01 0.01 91 1012.2
20260509132031 70 319 0.0 0.0 0.00 0.01 0.01 91 1010.4
20260509131827 71 300 0.0 0.0 0.01 0.01 0.01 91 1012.2
20260509131513 70 294 0.0 0.0 0.01 0.01 0.01 91 1010.4
20260509131322 70 158 0.0 0.0 0.01 0.01 0.01 92 1011.9
20260509131004 69 159 0.0 0.0 0.01 0.01 0.01 91 1010.1
20260509130817 70 195 0.0 0.0 0.01 0.01 0.01 91 1011.7
20260509130557 69 208 0.0 0.0 0.01 0.01 0.01 92 1010.0
20260509130333 69 201 0.0 0.0 0.01 0.01 0.01 92 1011.5
20260509130047 69 220 0.0 0.0 0.01 0.01 0.01 92 1009.9
20260509125827 69 206 0.0 0.0 0.01 0.01 0.01 92 1011.4
20260509125541 68 230 0.0 7.0 0.01 0.01 0.01 92 1009.9
20260509125323 69 213 0.0 9.0 0.01 0.01 0.01 93 1011.4
20260509125033 68 237 0.0 9.0 0.01 0.01 0.01 93 1009.8
20260509124821 68 247 4.0 9.0 0.01 0.01 0.01 93 1011.4
20260509124525 67 235 4.0 8.0 0.01 0.01 0.01 93 1009.8
20260509124316 68 233 4.0 8.0 0.01 0.01 0.01 93 1011.3
20260509124049 67 228 4.0 8.0 0.01 0.01 0.01 93 1009.7
20260509123832 68 222 5.0 10.0 0.01 0.01 0.01 93 1011.3
20260509123541 67 216 4.0 12.0 0.01 0.01 0.01 93 1009.7
20260509123328 67 191 4.0 13.0 0.01 0.01 0.01 93 1011.3
20260509123042 67 192 5.0 13.0 0.01 0.01 0.01 93 1009.6
20260509122824 67 175 8.0 13.0 0.01 0.01 0.01 93 1011.0
20260509122528 66 190 8.0 11.0 0.01 0.01 0.01 93 1009.6
20260509122320 67 176 7.0 11.0 0.01 0.01 0.01 93 1011.1
20260509122023 66 167 7.0 11.0 0.01 0.01 0.01 93 1009.7
20260509121818 66 183 7.0 10.0 0.00 0.00 0.00 93 1011.4
20260509121512 66 187 7.0 9.0 0.00 0.00 0.00 93 1010.0
20260509121354 66 202 7.0 9.0 0.00 0.00 0.00 93 1011.7
20260509121042 66 186 6.0 10.0 0.00 0.00 0.00 93 1010.1
20260509120828 66 200 6.0 10.0 0.00 0.00 0.00 93 1011.9
20260509120533 65 180 6.0 10.0 0.00 0.00 0.00 93 1010.2
20260509120345 66 181 7.0 10.0 0.00 0.00 0.00 93 1011.8
20260509120057 65 196 7.0 10.0 0.00 0.00 0.00 92 1010.3
20260509115821 66 197 5.0 10.0 0.00 0.00 0.00 92 1012.0
20260509115548 65 228 6.0 10.0 0.00 0.00 0.00 92 1010.4
20260509115316 66 212 7.0 10.0 0.00 0.00 0.00 93 1012.0
20260509115040 65 210 5.0 8.0 0.00 0.00 0.00 92 1010.4
20260509114854 66 193 4.0 8.0 0.00 0.00 0.00 92 1012.1
20260509114504 65 190 3.0 8.0 0.00 0.00 0.00 92 1010.2
20260509114329 66 175 4.0 8.0 0.00 0.00 0.00 92 1011.7
20260509114055 65 181 5.0 7.0 0.00 0.00 0.00 92 1010.0
20260509113824 66 180 5.0 7.0 0.00 0.00 0.00 92 1011.7
20260509113549 66 184 3.0 4.0 0.00 0.00 0.00 92 1010.4
20260509113320 66 183 3.0 4.0 0.00 0.00 0.00 92 1012.0
20260509113039 66 168 4.0 5.0 0.00 0.00 0.00 92 1010.8
20260509112816 66 160 4.0 5.0 0.00 0.00 0.00 92 1012.4
20260509112530 66 160 2.0 5.0 0.00 0.00 0.00 92 1010.8
20260509112328 66 160 2.0 5.0 0.00 0.00 0.00 92 1012.4
20260509112026 66 160 3.0 5.0 0.00 0.00 0.00 92 1011.1
20260509111843 67 160 4.0 5.0 0.00 0.00 0.00 92 1012.8
20260509111551 66 160 4.0 7.0 0.00 0.00 0.00 92 1011.4
20260509111319 67 160 4.0 7.0 0.00 0.00 0.00 92 1013.0
20260509111041 66 159 4.0 7.0 0.00 0.00 0.00 92 1011.5
20260509110815 67 151 4.0 6.0 0.00 0.00 0.00 92 1013.0
20260509110532 67 143 2.0 4.0 0.00 0.00 0.00 92 1011.6
20260509110332 67 126 2.0 4.0 0.00 0.00 0.00 92 1013.2
20260509110030 67 126 2.0 4.0 0.00 0.00 0.00 92 1011.8
20260509105848 67 33 2.0 3.0 0.00 0.00 0.00 92 1013.4
20260509105554 67 33 0.0 2.0 0.00 0.00 0.00 92 1012.1
20260509105323 68 33 0.0 2.0 0.00 0.00 0.00 92 1013.7
20260509105046 67 33 1.0 3.0 0.00 0.00 0.00 92 1012.3
20260509104821 68 33 1.0 3.0 0.00 0.00 0.00 92 1014.1
20260509104540 67 33 0.0 4.0 0.00 0.00 0.00 92 1012.4
20260509104338 68 33 2.0 4.0 0.00 0.00 0.00 92 1014.0
20260509104000 67 33 2.0 4.0 0.00 0.00 0.00 92 1012.7
20260509103832 68 349 1.0 4.0 0.00 0.00 0.00 92 1014.2
20260509103554 67 4 0.0 4.0 0.00 0.00 0.00 92 1012.8
20260509103348 68 4 1.0 4.0 0.00 0.00 0.00 92 1014.3
20260509103027 67 4 2.0 6.0 0.00 0.00 0.00 92 1012.8
20260509102824 68 4 2.0 9.0 0.00 0.00 0.00 92 1014.3
20260509102523 67 331 2.0 9.0 0.00 0.00 0.00 92 1012.9
20260509102321 68 328 3.0 9.0 0.00 0.00 0.00 92 1014.5
20260509102007 67 320 4.0 9.0 0.00 0.00 0.00 92 1013.1
20260509101818 67 348 4.0 9.0 0.00 0.00 0.00 92 1014.5
20260509101501 67 21 4.0 9.0 0.00 0.00 0.00 92 1013.0
20260509101314 67 330 4.0 9.0 0.00 0.00 0.00 92 1014.5
20260509101054 66 17 5.0 9.0 0.00 0.00 0.00 92 1013.0
20260509100831 67 339 6.0 9.0 0.00 0.00 0.00 92 1014.5
20260509100544 66 4 4.0 9.0 0.00 0.00 0.00 92 1012.9
20260509100327 67 320 4.0 8.0 0.00 0.00 0.00 92 1014.4
20260509100037 66 320 4.0 7.0 0.00 0.00 0.00 92 1012.7
20260509095842 67 347 4.0 6.0 0.00 0.00 0.00 92 1014.1
20260509095600 66 348 3.0 5.0 0.00 0.00 0.00 92 1012.3
20260509095318 67 320 3.0 6.0 0.00 0.00 0.00 92 1013.7
20260509095054 66 295 2.0 6.0 0.00 0.00 0.00 92 1012.1
20260509094815 67 287 3.0 6.0 0.00 0.00 0.00 92 1013.5
20260509094547 66 288 4.0 6.0 0.00 0.00 0.00 92 1012.1
20260509094350 67 308 3.0 5.0 0.00 0.00 0.00 92 1013.7
20260509094009 66 294 1.0 2.0 0.00 0.00 0.00 92 1012.1
20260509093827 67 294 1.0 3.0 0.00 0.00 0.00 92 1013.6
20260509093600 66 294 1.0 3.0 0.00 0.00 0.00 92 1012.0
20260509093323 67 294 1.0 3.0 0.00 0.00 0.00 92 1013.6
20260509093050 66 295 1.0 3.0 0.00 0.00 0.00 92 1012.1
20260509092819 67 294 1.0 4.0 0.00 0.00 0.00 92 1013.6
20260509092550 66 294 1.0 5.0 0.00 0.00 0.00 92 1012.1
20260509092315 67 295 2.0 5.0 0.00 0.00 0.00 92 1013.6
20260509092044 66 294 2.0 5.0 0.00 0.00 0.00 92 1012.2
20260509091832 67 341 3.0 5.0 0.00 0.00 0.00 92 1013.6
20260509091539 67 342 4.0 5.0 0.00 0.00 0.00 92 1012.1
20260509091329 67 325 2.0 4.0 0.00 0.00 0.00 92 1013.0
20260509091028 67 211 2.0 4.0 0.00 0.00 0.00 92 1011.2
20260509090825 67 4 2.0 3.0 0.00 0.00 0.00 92 1012.7
20260509090525 67 4 0.0 2.0 0.00 0.00 0.00 92 1011.7
20260509090343 67 4 0.0 2.0 0.00 0.00 0.00 92 1013.4
20260509090055 67 4 1.0 4.0 0.00 0.00 0.00 92 1012.1
20260509085817 67 4 1.0 6.0 0.00 0.00 0.00 92 1013.5
20260509085540 67 4 1.0 6.0 0.00 0.00 0.00 92 1011.9
20260509085328 67 4 2.0 6.0 0.00 0.00 0.00 92 1013.4
20260509085002 67 354 4.0 7.0 0.00 0.00 0.00 92 1012.0
20260509084825 67 27 4.0 6.0 0.00 0.00 0.00 92 1013.5
20260509084557 67 14 4.0 5.0 0.00 0.00 0.00 91 1011.6
20260509084322 67 173 4.0 5.0 0.00 0.00 0.00 91 1012.8
20260509084050 67 172 0.0 2.0 0.00 0.00 0.00 91 1011.0
20260509083817 68 172 0.0 2.0 0.00 0.00 0.00 91 1012.4
20260509083543 67 172 0.0 2.0 0.00 0.00 0.00 91 1011.0
20260509083314 68 172 0.0 2.0 0.00 0.00 0.00 91 1012.5
20260509083038 68 172 0.0 2.0 0.00 0.00 0.00 91 1011.0
20260509082831 68 172 1.0 2.0 0.00 0.00 0.00 91 1012.3
20260509082530 68 172 0.0 1.0 0.00 0.00 0.00 91 1010.8
20260509082328 68 173 0.0 1.0 0.00 0.00 0.00 91 1012.3
20260509082010 68 172 0.0 1.0 0.00 0.00 0.00 91 1011.0
20260509081824 69 172 0.0 1.0 0.00 0.00 0.00 91 1012.6
20260509081506 68 172 0.0 3.0 0.00 0.00 0.00 91 1011.2
20260509081339 69 172 0.0 3.0 0.00 0.00 0.00 91 1012.7
20260509081035 68 172 0.0 4.0 0.00 0.00 0.00 91 1011.2
20260509080814 69 172 2.0 4.0 0.00 0.00 0.00 92 1012.6
20260509080529 68 172 2.0 4.0 0.00 0.00 0.00 92 1011.2
20260509080330 69 172 3.0 5.0 0.00 0.00 0.00 92 1012.6
20260509080014 68 172 2.0 7.0 0.00 0.00 0.00 92 1011.2
20260509075826 69 172 3.0 7.0 0.00 0.00 0.00 92 1012.6
20260509075504 68 195 3.0 9.0 0.00 0.00 0.00 92 1011.2
20260509075341 69 206 5.0 9.0 0.00 0.00 0.00 92 1012.6
20260509075038 68 194 5.0 10.0 0.00 0.00 0.00 92 1011.0
20260509074816 69 201 6.0 11.0 0.00 0.00 0.00 92 1012.4
20260509074504 68 208 7.0 11.0 0.00 0.00 0.00 92 1011.0
20260509074333 68 201 7.0 11.0 0.00 0.00 0.00 92 1012.4
20260509074054 68 210 8.0 11.0 0.00 0.00 0.00 92 1010.9
20260509073828 68 188 8.0 10.0 0.00 0.00 0.00 92 1012.4
20260509073545 67 206 6.0 9.0 0.00 0.00 0.00 92 1011.0
20260509073344 68 177 7.0 9.0 0.00 0.00 0.00 92 1012.6
20260509073018 67 197 5.0 9.0 0.00 0.00 0.00 92 1011.5
20260509072820 67 201 5.0 8.0 0.00 0.00 0.00 92 1012.9
20260509072516 67 202 4.0 8.0 0.00 0.00 0.00 92 1011.5
20260509072317 67 210 4.0 8.0 0.00 0.00 0.00 92 1013.0
20260509072057 67 214 4.0 8.0 0.00 0.00 0.00 92 1011.5
20260509071833 67 211 5.0 8.0 0.00 0.00 0.00 92 1012.9
20260509071607 67 202 5.0 7.0 0.00 0.00 0.00 91 1011.5
20260509071330 67 197 4.0 6.0 0.00 0.00 0.00 91 1013.0
20260509071046 67 212 2.0 4.0 0.00 0.00 0.00 91 1011.7
20260509070826 67 212 2.0 3.0 0.00 0.00 0.00 91 1013.2
20260509070538 66 194 0.0 0.0 0.00 0.00 0.00 91 1011.9
20260509070323 67 194 0.0 0.0 0.00 0.00 0.00 91 1013.3
20260509070034 66 194 0.0 0.0 0.00 0.00 0.00 91 1011.9
20260509065840 67 194 0.0 1.0 0.00 0.00 0.00 91 1013.1
20260509065559 67 194 0.0 2.0 0.00 0.00 0.00 91 1011.6
20260509065316 67 194 0.0 2.0 0.00 0.00 0.00 91 1012.9
20260509065054 67 194 0.0 2.0 0.00 0.00 0.00 91 1011.5
20260509064832 67 194 1.0 2.0 0.00 0.00 0.00 91 1012.9
20260509064544 67 194 1.0 2.0 0.00 0.00 0.00 91 1011.6
20260509064329 68 194 0.0 1.0 0.00 0.00 0.00 91 1013.0
20260509064039 67 194 0.0 1.0 0.00 0.00 0.00 91 1011.7
20260509063825 68 194 0.0 1.0 0.00 0.00 0.00 91 1013.1
20260509063530 67 194 0.0 1.0 0.00 0.00 0.00 91 1011.8
20260509063342 68 194 0.0 1.0 0.00 0.00 0.00 91 1013.1
20260509063054 67 194 0.0 2.0 0.00 0.00 0.00 91 1012.0
20260509062832 68 194 0.0 3.0 0.00 0.00 0.00 91 1013.3
20260509062529 67 194 0.0 3.0 0.00 0.00 0.00 91 1012.0
20260509062326 68 194 2.0 4.0 0.00 0.00 0.00 91 1013.3
20260509062024 67 194 2.0 4.0 0.00 0.00 0.00 91 1012.0
20260509061821 68 194 2.0 4.0 0.00 0.00 0.00 91 1013.3
20260509061519 67 194 2.0 4.0 0.00 0.00 0.00 91 1011.9
20260509061316 68 194 2.0 4.0 0.00 0.00 0.00 91 1013.2
20260509061101 68 194 2.0 4.0 0.00 0.00 0.00 91 1011.8
20260509060852 68 194 3.0 4.0 0.00 0.00 0.00 91 1013.0
20260509060531 68 267 2.0 3.0 0.00 0.00 0.00 91 1011.9
20260509060323 68 267 2.0 3.0 0.00 0.00 0.00 91 1013.1
20260509060118 67 267 1.0 2.0 0.00 0.00 0.00 91 1011.8
20260509055815 68 267 1.0 2.0 0.00 0.00 0.00 91 1013.1
20260509055552 67 267 0.0 4.0 0.00 0.00 0.00 91 1011.9
20260509055331 68 267 0.0 4.0 0.00 0.00 0.00 91 1013.3
20260509055045 67 267 0.0 4.0 0.00 0.00 0.00 91 1012.1
20260509054828 68 266 2.0 4.0 0.00 0.00 0.00 91 1013.4
20260509054540 67 285 1.0 3.0 0.00 0.00 0.00 91 1012.1
20260509054323 67 285 1.0 3.0 0.00 0.00 0.00 91 1013.3
20260509054030 67 285 1.0 3.0 0.00 0.00 0.00 91 1011.9
20260509053820 67 285 2.0 3.0 0.00 0.00 0.00 91 1013.1
20260509053524 66 312 0.0 5.0 0.00 0.00 0.00 91 1011.4
20260509053315 67 312 1.0 5.0 0.00 0.00 0.00 91 1012.7
20260509053014 66 312 1.0 5.0 0.00 0.00 0.00 91 1011.4
20260509052830 67 312 3.0 5.0 0.00 0.00 0.00 91 1012.7
20260509052547 66 312 3.0 5.0 0.00 0.00 0.00 91 1011.3
20260509052326 67 321 2.0 3.0 0.00 0.00 0.00 91 1012.6
20260509052037 66 153 2.0 3.0 0.00 0.00 0.00 91 1011.0
20260509051824 67 153 2.0 3.0 0.00 0.00 0.00 91 1012.5
20260509051530 66 152 1.0 2.0 0.00 0.00 0.00 91 1011.2
20260509051321 67 153 1.0 2.0 0.00 0.00 0.00 91 1012.5
20260509051024 66 153 0.0 2.0 0.00 0.00 0.00 91 1011.0
20260509050838 66 154 0.0 2.0 0.00 0.00 0.00 91 1012.3
20260509050548 66 153 1.0 3.0 0.00 0.00 0.00 91 1011.0
20260509050329 66 153 1.0 3.0 0.00 0.00 0.00 91 1012.2
20260509050051 66 153 1.0 3.0 0.00 0.00 0.00 91 1010.9
20260509045835 66 153 2.0 3.0 0.00 0.00 0.00 90 1012.1
20260509045538 66 153 2.0 3.0 0.00 0.00 0.00 90 1010.8
20260509045330 67 154 2.0 3.0 0.00 0.00 0.00 90 1012.1
20260509045035 67 153 1.0 2.0 0.00 0.00 0.00 90 1010.6
20260509044826 67 153 1.0 2.0 0.00 0.00 0.00 90 1012.0
20260509044524 67 153 0.0 1.0 0.00 0.00 0.00 90 1010.4
20260509044322 68 153 0.0 1.0 0.00 0.00 0.00 90 1011.7
20260509044045 67 153 0.0 2.0 0.00 0.00 0.00 90 1010.4
20260509043850 68 154 0.0 3.0 0.00 0.00 0.00 90 1011.7
20260509043508 67 153 0.0 3.0 0.00 0.00 0.00 90 1010.4
20260509043325 68 153 1.0 3.0 0.00 0.00 0.00 90 1011.8
20260509043103 67 154 0.0 2.0 0.00 0.00 0.00 90 1010.5
20260509042822 68 153 0.0 1.0 0.00 0.00 0.00 90 1011.9
20260509042556 67 153 0.0 0.0 0.00 0.00 0.00 90 1010.6
20260509042318 68 153 0.0 2.0 0.00 0.00 0.00 90 1011.9
20260509042048 67 153 0.0 3.0 0.00 0.00 0.00 90 1010.7
20260509041815 68 153 0.0 3.0 0.00 0.00 0.00 90 1012.1
20260509041541 68 153 1.0 3.0 0.00 0.00 0.00 90 1010.8
20260509041331 68 153 2.0 3.0 0.00 0.00 0.00 90 1012.2
20260509041034 68 153 0.0 2.0 0.00 0.00 0.00 89 1010.8
20260509040828 68 154 0.0 1.0 0.00 0.00 0.00 89 1012.2
20260509040527 68 153 0.0 1.0 0.00 0.00 0.00 89 1010.8
20260509040325 68 153 0.0 0.0 0.00 0.00 0.00 89 1012.1
20260509040010 68 154 0.0 1.0 0.00 0.00 0.00 89 1010.9
20260509035820 68 154 0.0 1.0 0.00 0.00 0.00 89 1012.1
20260509035508 68 154 0.0 1.0 0.00 0.00 0.00 89 1010.9
20260509035315 69 153 0.0 1.0 0.00 0.00 0.00 89 1012.2
20260509035057 68 153 0.0 0.0 0.00 0.00 0.00 89 1010.9
20260509034831 69 153 0.0 0.0 0.00 0.00 0.00 89 1012.1
20260509034552 69 153 0.0 0.0 0.00 0.00 0.00 89 1010.8
20260509034328 69 153 0.0 0.0 0.00 0.00 0.00 89 1012.0
20260509034044 69 153 0.0 0.0 0.00 0.00 0.00 89 1010.7
20260509033845 69 153 0.0 0.0 0.00 0.00 0.00 89 1012.1
20260509033510 69 154 0.0 0.0 0.00 0.00 0.00 89 1010.8
20260509033341 69 153 0.0 0.0 0.00 0.00 0.00 89 1012.0
20260509033042 69 153 0.0 0.0 0.00 0.00 0.00 89 1010.8
20260509032817 69 153 0.0 0.0 0.00 0.00 0.00 89 1012.1
20260509032534 69 154 0.0 0.0 0.00 0.00 0.00 89 1010.7
20260509032314 69 154 0.0 0.0 0.00 0.00 0.00 89 1012.0
20260509032027 69 153 0.0 0.0 0.00 0.00 0.00 89 1010.7
20260509031830 69 153 0.0 0.0 0.00 0.00 0.00 89 1011.9
20260509031516 69 153 0.0 0.0 0.00 0.00 0.00 89 1010.6
20260509031347 70 153 0.0 0.0 0.00 0.00 0.00 89 1011.8
20260509031040 69 154 0.0 1.0 0.00 0.00 0.00 89 1010.5
20260509030822 70 153 0.0 1.0 0.00 0.00 0.00 89 1011.6
20260509030532 69 154 0.0 2.0 0.00 0.00 0.00 89 1010.2
20260509030335 70 153 0.0 2.0 0.00 0.00 0.00 89 1011.4
20260509030100 69 153 0.0 3.0 0.00 0.00 0.00 89 1010.2
20260509025832 70 153 1.0 3.0 0.00 0.00 0.00 89 1011.4
20260509025551 69 153 1.0 5.0 0.00 0.00 0.00 89 1010.0
20260509025349 70 153 1.0 5.0 0.00 0.00 0.00 89 1011.3
20260509025021 69 154 2.0 5.0 0.00 0.00 0.00 89 1010.0
20260509024844 70 153 3.0 5.0 0.00 0.00 0.00 89 1011.2
20260509024544 70 154 2.0 5.0 0.00 0.00 0.00 89 1010.0
20260509024339 70 154 3.0 4.0 0.00 0.00 0.00 89 1011.2
20260509024015 70 154 1.0 5.0 0.00 0.00 0.00 89 1010.0
20260509023815 70 153 1.0 5.0 0.00 0.00 0.00 89 1011.3
20260509023600 70 154 2.0 5.0 0.00 0.00 0.00 89 1010.1
20260509023331 70 153 2.0 5.0 0.00 0.00 0.00 89 1011.2
20260509023057 70 154 1.0 5.0 0.00 0.00 0.00 88 1010.0
20260509022846 70 153 2.0 5.0 0.00 0.00 0.00 88 1011.2
20260509022523 70 154 1.0 5.0 0.00 0.00 0.00 88 1010.0
20260509022320 71 153 1.0 7.0 0.00 0.00 0.00 88 1011.1
20260509022006 70 154 2.0 7.0 0.00 0.00 0.00 88 1009.8
20260509021817 71 136 3.0 7.0 0.00 0.00 0.00 88 1011.0
20260509021600 70 149 4.0 6.0 0.00 0.00 0.00 88 1009.8
20260509021314 71 154 3.0 5.0 0.00 0.00 0.00 88 1011.0
20260509021053 70 138 2.0 5.0 0.00 0.00 0.00 88 1009.8
20260509020831 71 135 2.0 7.0 0.00 0.00 0.00 88 1010.9
20260509020546 70 146 3.0 7.0 0.00 0.00 0.00 88 1009.7
20260509020327 71 140 3.0 7.0 0.00 0.00 0.00 87 1010.8
20260509020038 70 131 3.0 6.0 0.00 0.00 0.00 88 1009.6
20260509015822 71 148 3.0 7.0 0.00 0.00 0.00 87 1010.8
20260509015603 71 152 3.0 7.0 0.00 0.00 0.00 87 1009.6
20260509015318 71 156 4.0 7.0 0.00 0.00 0.00 87 1010.8
20260509015051 71 152 4.0 7.0 0.00 0.00 0.00 87 1009.6
20260509014814 71 158 5.0 7.0 0.00 0.00 0.00 87 1010.9
20260509014544 71 139 2.0 6.0 0.00 0.00 0.00 87 1009.6
20260509014331 72 136 1.0 4.0 0.00 0.00 0.00 86 1010.8
20260509014012 71 148 0.0 0.0 0.00 0.00 0.00 87 1009.7
20260509013829 72 143 0.0 0.0 0.00 0.00 0.00 86 1010.9
20260509013544 71 135 0.0 0.0 0.00 0.00 0.00 86 1009.6
20260509013344 72 125 0.0 0.0 0.00 0.00 0.00 86 1010.8
20260509013027 72 127 0.0 0.0 0.00 0.00 0.00 86 1009.6
20260509012818 72 156 0.0 0.0 0.00 0.00 0.00 86 1010.8
20260509012502 72 142 0.0 0.0 0.00 0.00 0.00 86 1009.8
20260509012333 72 137 0.0 0.0 0.00 0.00 0.00 86 1011.1
20260509012054 72 106 0.0 0.0 0.00 0.00 0.00 86 1009.8
20260509011830 72 106 0.0 0.0 0.00 0.00 0.00 85 1011.2
20260509011548 72 106 0.0 0.0 0.00 0.00 0.00 85 1009.9
20260509011329 72 106 0.0 0.0 0.00 0.00 0.00 85 1011.1
20260509011036 72 112 0.0 0.0 0.00 0.00 0.00 85 1009.9
20260509010824 72 112 0.0 0.0 0.00 0.00 0.00 85 1011.0
20260509010528 72 112 0.0 0.0 0.00 0.00 0.00 85 1009.8
20260509010320 72 112 0.0 0.0 0.00 0.00 0.00 85 1010.9
20260509010027 72 103 0.0 0.0 0.00 0.00 0.00 85 1009.6
20260509005816 72 101 0.0 0.0 0.00 0.00 0.00 85 1010.7
20260509005517 72 156 0.0 0.0 0.00 0.00 0.00 85 1009.5
20260509005332 72 120 0.0 0.0 0.00 0.00 0.00 85 1010.6
20260509005059 72 149 0.0 0.0 0.00 0.00 0.00 85 1009.3
20260509004829 72 145 0.0 0.0 0.00 0.00 0.00 85 1010.5
20260509004555 72 85 0.0 0.0 0.00 0.00 0.00 85 1009.3
20260509004325 73 117 0.0 0.0 0.00 0.00 0.00 85 1010.5
20260509004044 72 139 0.0 0.0 0.00 0.00 0.00 85 1009.2
20260509003822 73 101 0.0 0.0 0.00 0.00 0.00 85 1010.4
20260509003536 72 98 0.0 0.0 0.00 0.00 0.00 85 1009.1
20260509003317 73 109 0.0 0.0 0.00 0.00 0.00 84 1010.4
20260509003032 72 95 0.0 0.0 0.00 0.00 0.00 84 1009.2
20260509002833 73 112 0.0 0.0 0.00 0.00 0.00 84 1010.4
20260509002528 72 62 0.0 0.0 0.00 0.00 0.00 84 1009.3
20260509002330 73 94 0.0 0.0 0.00 0.00 0.00 84 1010.5
20260509002012 72 101 0.0 0.0 0.00 0.00 0.00 84 1009.3
20260509001827 73 106 0.0 0.0 0.00 0.00 0.00 84 1010.5
20260509001600 72 79 0.0 0.0 0.00 0.00 0.00 84 1009.4
20260509001324 73 80 0.0 0.0 0.00 0.00 0.00 84 1010.5
20260509001053 72 80 0.0 0.0 0.00 0.00 0.00 84 1009.3
20260509000820 73 120 0.0 0.0 0.00 0.00 0.00 84 1010.5
20260509000550 72 110 0.0 0.0 0.00 0.00 0.00 84 1009.4
20260509000318 73 139 0.0 0.0 0.00 0.00 0.00 84 1010.6
20260509000053 73 95 0.0 0.0 0.00 0.00 0.00 84 1009.3
20260508235832 73 128 0.0 0.0 0.00 0.00 0.00 84 1010.5
20260508235532 73 167 0.0 0.0 0.00 0.00 0.00 84 1009.2
20260508235327 73 97 0.0 0.0 0.00 0.00 0.00 84 1010.4
20260508235027 73 53 0.0 0.0 0.00 0.00 0.00 84 1009.3
20260508234844 73 79 0.0 0.0 0.00 0.00 0.00 84 1010.5
20260508234608 73 125 0.0 0.0 0.00 0.00 0.00 84 1009.4
20260508234321 73 104 0.0 0.0 0.00 0.00 0.00 84 1010.5
20260508234050 73 111 0.0 0.0 0.00 0.00 0.00 83 1009.3
20260508233818 73 113 0.0 0.0 0.00 0.00 0.00 83 1010.7
20260508233540 73 124 0.0 0.0 0.00 0.00 0.00 83 1009.5
20260508233351 73 102 0.0 0.0 0.00 0.00 0.00 84 1010.6
20260508233002 73 79 0.0 0.0 0.00 0.00 0.00 83 1009.5
20260508232826 73 108 0.0 0.0 0.00 0.00 0.00 83 1010.7
20260508232557 73 85 0.0 0.0 0.00 0.00 0.00 83 1009.4
20260508232321 73 141 0.0 0.0 0.00 0.00 0.00 83 1010.6
20260508232049 73 116 0.0 0.0 0.00 0.00 0.00 83 1009.4
20260508231816 73 110 0.0 0.0 0.00 0.00 0.00 83 1010.7
20260508231543 73 132 0.0 0.0 0.00 0.00 0.00 83 1009.3
20260508231330 73 133 0.0 0.0 0.00 0.00 0.00 83 1010.6
20260508231006 73 118 0.0 0.0 0.00 0.00 0.00 83 1009.5
20260508230825 73 93 0.0 0.0 0.00 0.00 0.00 83 1010.7
20260508230600 73 154 0.0 0.0 0.00 0.00 0.00 83 1009.4
20260508230320 73 70 0.0 0.0 0.00 0.00 0.00 83 1010.6
20260508230058 73 30 0.0 0.0 0.00 0.00 0.00 83 1009.4
20260508225816 73 58 0.0 0.0 0.00 0.00 0.00 83 1010.6
20260508225544 73 50 0.0 0.0 0.00 0.00 0.00 83 1009.4
20260508225331 73 79 0.0 0.0 0.00 0.00 0.00 83 1010.6
20260508225036 73 78 0.0 0.0 0.00 0.00 0.00 83 1009.4
20260508224827 73 111 0.0 0.0 0.00 0.00 0.00 83 1010.6
20260508224534 73 102 0.0 0.0 0.00 0.00 0.00 83 1009.6
20260508224323 73 120 0.0 0.0 0.00 0.00 0.00 82 1010.7
20260508224025 73 108 0.0 0.0 0.00 0.00 0.00 82 1009.5
20260508223821 73 121 0.0 0.0 0.00 0.00 0.00 82 1010.7
20260508223519 73 78 0.0 0.0 0.00 0.00 0.00 82 1009.4
20260508223317 74 66 0.0 0.0 0.00 0.00 0.00 82 1010.6
20260508223024 73 90 0.0 0.0 0.00 0.00 0.00 82 1009.5
20260508222833 74 97 0.0 0.0 0.00 0.00 0.00 82 1010.5
20260508222603 73 116 0.0 0.0 0.00 0.00 0.00 82 1009.5
20260508222330 74 154 0.0 0.0 0.00 0.00 0.00 82 1010.7
20260508222054 73 115 0.0 0.0 0.00 0.00 0.00 82 1009.6
20260508221847 73 99 0.0 0.0 0.00 0.00 0.00 82 1010.7
20260508221531 73 133 0.0 0.0 0.00 0.00 0.00 83 1009.6
20260508221322 73 145 0.0 0.0 0.00 0.00 0.00 83 1010.8
20260508221008 73 141 0.0 0.0 0.00 0.00 0.00 82 1009.6
20260508220819 73 98 0.0 0.0 0.00 0.00 0.00 82 1010.7
20260508220604 73 127 0.0 0.0 0.00 0.00 0.00 82 1009.7
20260508220316 73 130 0.0 0.0 0.00 0.00 0.00 82 1010.8
20260508220054 73 102 0.0 0.0 0.00 0.00 0.00 82 1009.7
20260508215832 73 87 0.0 0.0 0.00 0.00 0.00 81 1010.9
20260508215518 73 88 0.0 0.0 0.00 0.00 0.00 82 1009.6
20260508215329 74 81 0.0 0.0 0.00 0.00 0.00 82 1010.9
20260508215008 73 137 0.0 0.0 0.00 0.00 0.00 82 1009.8
20260508214845 74 145 0.0 0.0 0.00 0.00 0.00 81 1010.9
20260508214542 73 157 0.0 0.0 0.00 0.00 0.00 81 1009.9
20260508214341 74 112 0.0 0.0 0.00 0.00 0.00 81 1011.0
20260508214014 73 106 0.0 0.0 0.00 0.00 0.00 81 1009.9
20260508213816 74 139 0.0 0.0 0.00 0.00 0.00 81 1011.0
20260508213555 74 84 0.0 0.0 0.00 0.00 0.00 81 1009.8
20260508213333 74 115 0.0 0.0 0.00 0.00 0.00 82 1011.0
20260508213059 73 159 0.0 0.0 0.00 0.00 0.00 82 1010.0
20260508212828 74 78 0.0 0.0 0.00 0.00 0.00 82 1011.0
20260508212538 73 152 0.0 0.0 0.00 0.00 0.00 81 1010.0
20260508212323 74 106 0.0 0.0 0.00 0.00 0.00 82 1011.1
20260508212033 73 129 0.0 0.0 0.00 0.00 0.00 82 1010.0
20260508211819 73 90 0.0 0.0 0.00 0.00 0.00 82 1011.1
20260508211558 73 81 0.0 0.0 0.00 0.00 0.00 82 1010.3
20260508211335 73 118 0.0 0.0 0.00 0.00 0.00 82 1011.4
20260508211029 73 162 0.0 0.0 0.00 0.00 0.00 82 1010.3
20260508210828 73 68 0.0 0.0 0.00 0.00 0.00 83 1011.4
20260508210509 73 87 0.0 0.0 0.00 0.00 0.00 82 1010.3
20260508210324 73 126 0.0 0.0 0.00 0.00 0.00 82 1011.5
20260508210002 72 119 0.0 0.0 0.00 0.00 0.00 82 1010.5
20260508205820 73 102 0.0 0.0 0.00 0.00 0.00 82 1011.5
20260508205557 73 117 0.0 0.0 0.00 0.00 0.00 82 1010.7
20260508205317 73 133 0.0 0.0 0.00 0.00 0.00 83 1011.7
20260508205053 72 163 0.0 0.0 0.00 0.00 0.00 84 1010.6
20260508204834 72 120 0.0 0.0 0.00 0.00 0.00 83 1011.6
20260508204546 72 64 0.0 0.0 0.00 0.00 0.00 83 1010.6
20260508204329 72 85 0.0 0.0 0.00 0.00 0.00 83 1011.8
20260508204039 72 131 0.0 0.0 0.00 0.00 0.00 83 1010.9
20260508203825 72 89 0.0 0.0 0.00 0.00 0.00 82 1011.9
20260508203535 72 76 0.0 0.0 0.00 0.00 0.00 82 1010.8
20260508203322 73 112 0.0 0.0 0.00 0.00 0.00 82 1011.9
20260508203032 72 86 0.0 0.0 0.00 0.00 0.00 82 1010.8
20260508202817 73 139 0.0 0.0 0.00 0.00 0.00 82 1012.0
20260508202519 72 25 0.0 0.0 0.00 0.00 0.00 83 1011.0
20260508202332 73 81 0.0 0.0 0.00 0.00 0.00 83 1012.1
20260508202103 72 158 0.0 0.0 0.00 0.00 0.00 83 1011.1
20260508201827 72 88 0.0 0.0 0.00 0.00 0.00 83 1012.2
20260508201609 71 153 0.0 0.0 0.00 0.00 0.00 84 1011.2
20260508201323 71 140 0.0 0.0 0.00 0.00 0.00 83 1012.3
20260508201025 71 160 0.0 0.0 0.00 0.00 0.00 84 1011.4
20260508200838 71 130 0.0 0.0 0.00 0.00 0.00 84 1012.4
20260508200549 70 137 0.0 0.0 0.00 0.00 0.00 83 1011.7
20260508200332 71 141 0.0 0.0 0.00 0.00 0.00 84 1012.7
20260508200045 70 110 0.0 0.0 0.00 0.00 0.00 84 1011.8
20260508195828 71 144 0.0 0.0 0.00 0.01 0.00 84 1012.7
20260508195532 70 156 0.0 0.0 0.00 0.01 0.00 84 1011.7
20260508195325 70 129 0.0 0.0 0.00 0.01 0.00 84 1012.7
20260508195023 70 83 0.0 0.0 0.00 0.01 0.00 84 1011.8